[[{"header":{"parameterUnit":"m.s-1","parameterCategory":2,"la1":30.2991,"la2":30.254,"lo1":-89.0895,"lo2":-89.0444,"dy":0.0017,"dx":0.0017,"nx":28,"ny":28,"refTime":"2025-06-22T21:00:00:Z","depth":"0","parameterNumber":2,"parameterNumberName":"U-component_of_CURRENTS"},"data":[0,0,0,0,0,0,0,0,0,0,0,0,0,0,0,0,0,0,0,0,0,0,0,0,0,0,0,0,0,0,0,0,0,0,0,0,0,0,0,0,0,0,0,0,0,0,0,0,0,0,0,0,0,0,0,0,0,0,0.361,0.3611,0,0.3656,0.3656,0.3656,0.3657,0.3657,0.3656,0.3656,0.366,0.366,0.366,0,0,0,0,0,0,0,0,0,0,0,0,0,0.3496,0.3497,0.361,0.3611,0.3612,0.3656,0.3656,0.3656,0.3657,0.3657,0.3656,0.3656,0.366,0.366,0.366,0,0,0,0,0,0,0,0,0,0,0,0,0,0.3539,0.3498,0.361,0.3621,0.3623,0.3656,0.3656,0.3656,0.3657,0.3657,0.3656,0.3656,0.366,0.366,0.366,0.3667,0,0,0.3661,0.3661,0,0,0,0,0,0,0,0,0.3537,0.3543,0.3619,0.3621,0.3623,0.3655,0.3617,0.3659,0.3657,0.3639,0.3656,0.3656,0.3657,0.3658,0.3661,0.3667,0.3667,0.3661,0.3661,0.3662,0.3662,0,0,0,0,0,0,0,0.3534,0.3541,0.3624,0.362,0.3622,0.3615,0.362,0.3625,0.3644,0.3641,0.3642,0.3654,0.3657,0.366,0.3661,0.3667,0.3661,0.3662,0.3662,0.3662,0.3743,0.3745,0,0,0,0,0,0,0.354,0.3538,0.3622,0.3626,0.3584,0.3617,0.3623,0.3641,0.3645,0.3648,0.3655,0.3654,0.366,0.366,0.3661,0.3724,0.3662,0.3662,0.3662,0.3741,0.3743,0.3745,0,0,0,0,0,0,0.3537,0.3547,0.3621,0.3586,0.3596,0.362,0.3639,0.3642,0.3653,0.3657,0.3658,0.3664,0.366,0.366,0.3682,0.3722,0.3662,0.3662,0.3739,0.3742,0.3744,0.3814,0,0,0,0,0,0,0.3534,0.3546,0.3558,0.3587,0.3598,0.3655,0.364,0.3643,0.3663,0.3663,0.3665,0.3665,0.366,0.3681,0.3682,0.3721,0.3663,0.3736,0.374,0.3743,0.381,0.3819,0.3828,0,0,0,0,0,0.3529,0.355,0.3559,0.3569,0.3615,0.3656,0.3661,0.3674,0.3663,0.3679,0.3681,0.3665,0.3705,0.3683,0.3683,0.3723,0.3734,0.3739,0.3743,0.3806,0.3817,0.3827,0,0,0,0,0,0,0.3504,0.3553,0.3563,0.3597,0.3632,0.3659,0.3675,0.3679,0.3692,0.3689,0.3682,0.3683,0.3722,0.3711,0.3687,0.376,0.3721,0.3726,0.3768,0.3779,0.3788,0.3795,0.3663,0,0,0,0,0,0.3507,0.3535,0.358,0.3607,0.3628,0.3651,0.3667,0.3678,0.3696,0.3701,0.3705,0.3715,0.374,0.3748,0.3764,0.3794,0.3812,0.3824,0.3833,0.384,0.3848,0.3918,0.3934,0.376,0.376,0.376,0,0,0.3501,0.3535,0.3548,0.3603,0.3628,0.3668,0.3659,0.3693,0.3723,0.3699,0.3734,0.3745,0.3756,0.3799,0.3816,0.3794,0.3903,0.3846,0.3852,0.3855,0.3924,0.3941,0.3956,0.3763,0.3762,0.3762,0,0,0.351,0.354,0.357,0.3606,0.3657,0.3679,0.3693,0.373,0.3746,0.3781,0.3782,0.3818,0.3838,0.3867,0.3881,0.3947,0.395,0.3953,0.4001,0.4069,0.4084,0.4098,0.4154,0.4171,0.3955,0.3955,0.3955,0,0.3498,0.3546,0.3583,0.3627,0.3654,0.3688,0.3722,0.3756,0.3792,0.3813,0.3802,0.3872,0.3876,0.3948,0.3973,0.3969,0.4002,0.3957,0.4082,0.4095,0.4108,0.4162,0.418,0.3959,0.3959,0.3958,0.3958,0,0.3535,0.3574,0.3598,0.3664,0.37,0.3736,0.3791,0.3827,0.3845,0.3876,0.3945,0.3967,0.4007,0.4025,0.4017,0.4114,0.4107,0.4087,0.4053,0.4129,0.4182,0.42,0.3965,0.3963,0.3962,0.3961,0,0,0.3485,0.3599,0.36,0.3646,0.3718,0.3756,0.3816,0.3882,0.394,0.3975,0.4046,0.4095,0.4109,0.4127,0.4138,0.4197,0.4312,0.418,0.4182,0.4234,0.4467,0.446,0.4479,0.4317,0.432,0.4323,0.4471,0,0.3493,0.3577,0.3625,0.3699,0.375,0.3803,0.3865,0.3931,0.399,0.4072,0.4113,0.4189,0.415,0.4191,0.424,0.4304,0.4362,0.4274,0.4386,0.4389,0.4373,0.4501,0.4414,0.4539,0.4489,0.4492,0.4494,0,0.3498,0.3561,0.3631,0.3742,0.3767,0.3815,0.3922,0.3987,0.4105,0.4156,0.4228,0.427,0.4366,0.4324,0.4458,0.4406,0.4439,0.4478,0.4484,0.4465,0.4418,0.4453,0.4573,0.4473,0.4521,0.4519,0.4517,0,0.3449,0.3557,0.3613,0.3648,0.378,0.3818,0.3885,0.4003,0.4061,0.4223,0.4286,0.4395,0.4465,0.4531,0.4589,0.4542,0.4741,0.4681,0.4705,0.4704,0.4646,0.4634,0.4679,0.4779,0.4779,0.4778,0.4778,0,0.3433,0.3478,0.3602,0.3637,0.3703,0.3811,0.3891,0.3986,0.4119,0.4201,0.4323,0.4414,0.4523,0.4629,0.4657,0.4756,0.4794,0.4751,0.476,0.4668,0.4657,0.4575,0.4517,0.4784,0.4783,0.4782,0.4781,0,0.336,0.3445,0.3513,0.3644,0.3681,0.3726,0.3848,0.3916,0.4078,0.4193,0.4246,0.445,0.4625,0.4723,0.4872,0.4852,0.4832,0.4956,0.484,0.4832,0.4731,0.468,0.4556,0.4404,0.5016,0.5017,0.5017,0,0.3328,0.3365,0.3475,0.3502,0.3553,0.3637,0.3688,0.3854,0.3928,0.42,0.4245,0.4487,0.4635,0.4879,0.4949,0.5056,0.4874,0.4993,0.488,0.4754,0.4704,0.4475,0.4337,0.4834,0.4833,0.4833,0.4832,0,0.326,0.3296,0.3346,0.3402,0.345,0.35,0.36,0.3652,0.3865,0.4003,0.4216,0.4385,0.4683,0.4804,0.498,0.5016,0.4784,0.4982,0.4891,0.4615,0.4331,0.4179,0.4696,0.4827,0.4827,0.4828,0.4828,0.4828,0.3184,0.3181,0.3248,0.3291,0.3332,0.3371,0.3377,0.3512,0.3634,0.3829,0.4079,0.4298,0.4612,0.4882,0.4879,0.4862,0.4752,0.4757,0.4724,0.4515,0.4304,0.4811,0.492,0.4921,0.4922,0.4923,0.4923,0,0.3093,0.3113,0.3143,0.3179,0.317,0.3242,0.3313,0.3313,0.3411,0.3656,0.385,0.422,0.4432,0.4623,0.477,0.4634,0.4378,0.4522,0.4186,0.4073,0.4597,0.4525,0.4506,0.4506,0.4506,0.4506,0.4506,0.4507,0.3053,0.3044,0.3066,0.3026,0.3038,0.2988,0.2998,0.3033,0.3161,0.3366,0.3568,0.3811,0.4275,0.4629,0.4594,0.4476,0.4082,0.3961,0.3852,0.4268,0.4285,0.4301,0.422,0.4137,0.4137,0.317,0.3164,0.3159]},{"header":{"parameterUnit":"m.s-1","parameterCategory":2,"la1":30.2991,"la2":30.254,"lo1":-89.0895,"lo2":-89.0444,"dy":0.0017,"dx":0.0017,"nx":28,"ny":28,"refTime":"2025-06-22T21:00:00:Z","depth":"0","parameterNumber":3,"parameterNumberName":"V-component_of_CURRENTS"},"data":[0,0,0,0,0,0,0,0,0,0,0,0,0,0,0,0,0,0,0,0,0,0,0,0,0,0,0,0,0,0,0,0,0,0,0,0,0,0,0,0,0,0,0,0,0,0,0,0,0,0,0,0,0,0,0,0,0,0,0.0125,0.0124,0,0.0022,0.0021,0.0019,-0.0055,-0.0055,-0.0056,-0.0056,-0.0218,-0.0221,-0.0225,0,0,0,0,0,0,0,0,0,0,0,0,0,0.0182,0.0182,0.0125,0.0124,0.0123,0.0022,0.0021,0.0019,-0.0055,-0.0055,-0.0056,-0.0056,-0.0216,-0.0221,-0.0226,0,0,0,0,0,0,0,0,0,0,0,0,0,0.0124,0.0182,0.0125,0.0076,0.007,0.0023,0.0021,0.0019,-0.0055,-0.0055,-0.0056,-0.0057,-0.0215,-0.022,-0.0226,-0.0251,0,0,-0.0244,-0.0247,0,0,0,0,0,0,0,0,0.0128,0.0122,0.0084,0.0079,0.0073,-0.0002,-0.0018,-0.0074,-0.0055,-0.001,-0.0056,-0.0057,-0.0149,-0.016,-0.0181,-0.0259,-0.0266,-0.0245,-0.0249,-0.0251,-0.0253,0,0,0,0,0,0,0,0.0132,0.0125,0.0081,0.0083,0.0076,0.0033,0.0025,-0.0029,-0.0078,-0.0014,-0.0019,-0.0026,-0.0153,-0.0175,-0.0186,-0.0268,-0.0245,-0.025,-0.0254,-0.0256,-0.038,-0.038,0,0,0,0,0,0,0.0154,0.013,0.0085,0.0079,0.0102,0.0033,0.0024,0.0021,-0.0076,-0.009,-0.0025,-0.0029,-0.0165,-0.0179,-0.0192,-0.0219,-0.0251,-0.0257,-0.026,-0.038,-0.038,-0.038,0,0,0,0,0,0,0.0156,0.0152,0.0089,0.0103,0.0093,0.0034,0.003,0.0019,-0.0002,-0.0084,-0.01,-0.0034,-0.0166,-0.0183,-0.0233,-0.0226,-0.0259,-0.0265,-0.0381,-0.038,-0.038,-0.0279,0,0,0,0,0,0,0.0158,0.0153,0.0159,0.0105,0.0093,0.0072,0.0031,0.0017,-0.0004,-0.001,-0.0097,-0.0112,-0.0168,-0.0223,-0.0238,-0.0235,-0.0269,-0.0381,-0.0381,-0.038,-0.0282,-0.0275,-0.0269,0,0,0,0,0,0.0161,0.0175,0.016,0.0154,0.0103,0.0073,0.0063,0.0016,-0.0004,-0.0006,-0.0065,-0.011,-0.0231,-0.0227,-0.0246,-0.0243,-0.0381,-0.0381,-0.038,-0.0286,-0.0276,-0.0269,0,0,0,0,0,0,0.0205,0.0168,0.015,0.0152,0.0121,0.0062,0.0057,0.0025,-0.0023,-0.0028,-0.0108,-0.0127,-0.0169,-0.0219,-0.0213,-0.0278,-0.0313,-0.0316,-0.0235,-0.0228,-0.0221,-0.019,-0.0274,0,0,0,0,0,0.0219,0.022,0.0175,0.0179,0.0168,0.0114,0.0096,0.0067,0.0019,-0.0003,-0.0062,-0.0126,-0.0181,-0.0212,-0.0268,-0.0303,-0.0338,-0.0314,-0.0307,-0.03,-0.0288,-0.0336,-0.0332,-0.0378,-0.0378,-0.0378,0,0,0.0237,0.0218,0.0217,0.0189,0.016,0.0154,0.0102,0.0085,0.0078,-0.0013,-0.0041,-0.0104,-0.0185,-0.0224,-0.0247,-0.0264,-0.0303,-0.03,-0.0293,-0.0284,-0.0335,-0.033,-0.0326,-0.0378,-0.0378,-0.0378,0,0,0.0278,0.0258,0.0272,0.0253,0.0222,0.0189,0.0191,0.0139,0.0113,0.0079,0.0012,-0.004,-0.0124,-0.0178,-0.0218,-0.0206,-0.0264,-0.0228,-0.0171,-0.0217,-0.0213,-0.021,-0.0231,-0.0231,-0.0225,-0.0225,-0.0225,0,0.0301,0.0314,0.0272,0.0281,0.0276,0.0213,0.023,0.0193,0.0132,0.0119,0.0086,-0.0028,-0.01,-0.0148,-0.0149,-0.0189,-0.0217,-0.0193,-0.0206,-0.0204,-0.0203,-0.0226,-0.0227,-0.022,-0.022,-0.0221,-0.0221,0,0.035,0.0359,0.0368,0.036,0.0348,0.0352,0.0305,0.0288,0.025,0.021,0.0161,0.0065,0.0002,-0.0037,-0.0095,-0.0123,-0.0145,-0.0189,-0.022,-0.0191,-0.0218,-0.0221,-0.0213,-0.0215,-0.0216,-0.0217,0,0,0.0402,0.0403,0.0406,0.0424,0.0393,0.0393,0.0386,0.0364,0.0376,0.0296,0.03,0.0182,0.0133,0.0086,0.0005,-0.0047,-0.0069,-0.0108,-0.0113,-0.0115,-0.0151,-0.0164,-0.0169,-0.0116,-0.0116,-0.0117,-0.0166,0,0.0454,0.0499,0.0479,0.0522,0.0543,0.0497,0.0503,0.0474,0.0439,0.0426,0.032,0.0284,0.0179,0.0155,0.0087,-0.0023,-0.0075,-0.005,-0.019,-0.0194,-0.0198,-0.0172,-0.0151,-0.0194,-0.0169,-0.017,-0.017,0,0.0509,0.0534,0.0592,0.0618,0.0624,0.0641,0.0655,0.0652,0.061,0.0584,0.0526,0.0441,0.0356,0.0262,0.0096,0.0119,-0.0005,-0.0101,-0.0106,-0.0154,-0.0213,-0.0224,-0.0201,-0.0447,-0.0175,-0.0175,-0.0175,0,0.0578,0.0612,0.0669,0.0676,0.0693,0.0719,0.0727,0.0708,0.0736,0.0692,0.0718,0.058,0.0548,0.0367,0.0165,0.0131,-0.0007,-0.0081,-0.021,-0.0212,-0.0239,-0.0243,-0.0459,-0.0204,-0.0203,-0.0203,-0.0203,0,0.0643,0.0686,0.0712,0.0747,0.0826,0.0805,0.0888,0.0872,0.0889,0.0963,0.0815,0.0853,0.0572,0.0454,0.0234,0.0029,0.0045,-0.0185,-0.0225,-0.0202,-0.0202,-0.0455,-0.0602,-0.0205,-0.0205,-0.0204,-0.0204,0,0.071,0.0723,0.0797,0.0841,0.0867,0.0926,0.1009,0.1068,0.107,0.1169,0.1167,0.1068,0.0926,0.0644,0.0372,0.0152,-0.0212,-0.0159,-0.0099,-0.0132,-0.0497,-0.0637,-0.0893,-0.0996,-0.0308,-0.0309,-0.031,0,0.075,0.0799,0.0882,0.0945,0.0976,0.1064,0.1136,0.1158,0.1245,0.1327,0.1397,0.1288,0.127,0.087,0.0435,0.0057,-0.0204,-0.0192,-0.0276,-0.0503,-0.069,-0.0798,-0.0874,-0.0267,-0.0267,-0.0267,-0.0268,0,0.0842,0.0873,0.0937,0.1068,0.1161,0.1267,0.1382,0.1486,0.1554,0.1662,0.1799,0.1796,0.1414,0.105,0.0498,0.0206,-0.0365,-0.0206,-0.0468,-0.0693,-0.0798,-0.0919,-0.0238,-0.0268,-0.0268,-0.0268,-0.0268,-0.0268,0.0922,0.0987,0.1088,0.1213,0.1322,0.1486,0.1622,0.1766,0.1959,0.2175,0.2135,0.2208,0.1615,0.0874,0.0437,-0.0368,-0.0389,-0.0607,-0.0759,-0.0846,-0.0958,-0.0263,-0.0328,-0.0328,-0.0329,-0.0329,-0.0329,0,0.1035,0.1114,0.1233,0.1396,0.1542,0.1575,0.1801,0.1967,0.2247,0.2427,0.2571,0.2326,0.1615,0.0841,-0.0246,-0.0804,-0.1023,-0.1122,-0.129,-0.1342,-0.0742,-0.0752,-0.0879,-0.0879,-0.0879,-0.0878,-0.0878,-0.0878,0.111,0.1247,0.1307,0.1574,0.1692,0.1928,0.208,0.2325,0.2509,0.2766,0.2813,0.2795,0.2164,0.0243,-0.104,-0.1338,-0.1749,-0.1848,-0.2042,-0.1663,-0.1627,-0.1592,-0.1637,-0.1948,-0.195,-0.2556,-0.2563,-0.2568]}],[{"header":{"parameterUnit":"m.s-1","parameterCategory":2,"la1":30.2991,"la2":30.254,"lo1":-89.0895,"lo2":-89.0444,"dy":0.0017,"dx":0.0017,"nx":28,"ny":28,"refTime":"2025-06-22T21:00:00:Z","depth":"2","parameterNumber":2,"parameterNumberName":"U-component_of_CURRENTS"},"data":[0,0,0,0,0,0,0,0,0,0,0,0,0,0,0,0,0,0,0,0,0,0,0,0,0,0,0,0,0,0,0,0,0,0,0,0,0,0,0,0,0,0,0,0,0,0,0,0,0,0,0,0,0,0,0,0,0,0,0.2952,0.2953,0,0.3008,0.3008,0.3009,0.3039,0.3039,0.3039,0.304,0.3061,0.3061,0.3062,0,0,0,0,0,0,0,0,0,0,0,0,0,0.2859,0.286,0.2952,0.2953,0.2954,0.3008,0.3008,0.3009,0.3039,0.3039,0.3039,0.304,0.3061,0.3061,0.3062,0,0,0,0,0,0,0,0,0,0,0,0,0,0.2902,0.286,0.2952,0.2977,0.298,0.3008,0.3008,0.3009,0.3039,0.3039,0.304,0.304,0.3061,0.3061,0.3062,0.3054,0,0,0.3063,0.3063,0,0,0,0,0,0,0,0,0.29,0.2905,0.2973,0.2976,0.2979,0.3019,0.2984,0.3023,0.3038,0.3013,0.304,0.304,0.3046,0.3047,0.3053,0.3055,0.3056,0.3063,0.3063,0.3063,0.3064,0,0,0,0,0,0,0,0.2897,0.2903,0.2971,0.2974,0.2978,0.2982,0.2989,0.2991,0.3023,0.3016,0.3019,0.3029,0.3047,0.3053,0.3054,0.3057,0.3063,0.3063,0.3064,0.3064,0.3154,0.3156,0,0,0,0,0,0,0.2896,0.29,0.2969,0.2973,0.2943,0.2984,0.2991,0.3004,0.3024,0.3029,0.3029,0.3031,0.3052,0.3053,0.3055,0.3128,0.3063,0.3064,0.3064,0.3152,0.3154,0.3157,0,0,0,0,0,0,0.2894,0.2902,0.2967,0.294,0.2949,0.2985,0.2999,0.3004,0.303,0.3035,0.3039,0.3051,0.3052,0.3054,0.3086,0.3126,0.3064,0.3064,0.3149,0.3153,0.3156,0.3222,0,0,0,0,0,0,0.2891,0.2901,0.2914,0.294,0.2951,0.3004,0.2999,0.3005,0.3036,0.3039,0.3055,0.3056,0.3053,0.3085,0.3086,0.3125,0.3065,0.3147,0.3151,0.3155,0.3217,0.3227,0.3235,0,0,0,0,0,0.2888,0.2904,0.2915,0.2924,0.2967,0.3005,0.3012,0.3036,0.3037,0.3058,0.3072,0.3057,0.3112,0.3087,0.3087,0.3127,0.3145,0.315,0.3154,0.3213,0.3225,0.3235,0,0,0,0,0,0,0.2866,0.291,0.2922,0.295,0.2985,0.3012,0.3034,0.3046,0.3072,0.3079,0.3075,0.3078,0.3122,0.3117,0.3089,0.3168,0.313,0.3135,0.3174,0.3185,0.3194,0.32,0.3065,0,0,0,0,0,0.2868,0.2899,0.2935,0.2962,0.298,0.3008,0.3028,0.3049,0.3073,0.3086,0.3097,0.3116,0.3139,0.3156,0.3169,0.3206,0.322,0.3237,0.3246,0.3254,0.3261,0.332,0.3335,0.3173,0.3173,0.3173,0,0,0.2869,0.2897,0.2916,0.2961,0.2987,0.302,0.3021,0.3064,0.3097,0.3083,0.3129,0.3143,0.3155,0.3202,0.3223,0.3206,0.3312,0.326,0.3266,0.3269,0.3326,0.3342,0.3356,0.3176,0.3175,0.3175,0,0,0.2883,0.2911,0.294,0.2973,0.3023,0.3042,0.3059,0.31,0.3127,0.3172,0.3177,0.3217,0.3244,0.3271,0.3284,0.3352,0.3355,0.3364,0.3419,0.3477,0.349,0.3502,0.3556,0.3572,0.3374,0.3374,0.3374,0,0.2878,0.292,0.2954,0.299,0.3019,0.3054,0.3087,0.3122,0.3171,0.3201,0.3198,0.3272,0.3278,0.3345,0.3376,0.3372,0.3407,0.3372,0.3488,0.35,0.3512,0.3564,0.3581,0.3378,0.3377,0.3377,0.3376,0,0.2911,0.295,0.2971,0.3026,0.3062,0.3101,0.3151,0.3196,0.3227,0.326,0.3336,0.3359,0.3406,0.3422,0.342,0.3512,0.3512,0.3488,0.3456,0.3532,0.3582,0.3599,0.3383,0.3382,0.338,0.338,0,0,0.288,0.2973,0.2982,0.3019,0.3086,0.312,0.3184,0.325,0.3304,0.3357,0.343,0.348,0.3504,0.3522,0.3536,0.3591,0.3701,0.3584,0.3585,0.3632,0.3842,0.3816,0.3831,0.3704,0.3707,0.3709,0.385,0,0.2891,0.2962,0.3004,0.3073,0.3113,0.317,0.3223,0.3293,0.3357,0.3438,0.3491,0.3563,0.354,0.3586,0.3634,0.3687,0.3746,0.3665,0.3767,0.377,0.3732,0.3849,0.3562,0.3661,0.3866,0.3869,0.3871,0,0.2897,0.2953,0.301,0.3109,0.313,0.3168,0.3271,0.3334,0.3449,0.3508,0.3593,0.364,0.3741,0.3707,0.3834,0.379,0.3826,0.3856,0.3862,0.3823,0.3774,0.3618,0.3683,0.3899,0.3896,0.3894,0.3892,0,0.2853,0.2954,0.2997,0.3029,0.3135,0.3173,0.3239,0.3349,0.342,0.3572,0.3643,0.375,0.383,0.3891,0.3957,0.3915,0.4094,0.4034,0.4042,0.404,0.3807,0.378,0.4126,0.4126,0.4125,0.4125,0.4125,0,0.2835,0.2879,0.2982,0.3007,0.3068,0.3161,0.3242,0.333,0.3469,0.3555,0.3678,0.377,0.3885,0.399,0.4017,0.41,0.4144,0.4085,0.4088,0.3824,0.3798,0.3999,0.3982,0.413,0.4129,0.4128,0.4127,0,0.2769,0.2835,0.2893,0.3006,0.304,0.3088,0.3231,0.3296,0.3448,0.3574,0.3633,0.3826,0.3978,0.4078,0.4209,0.4187,0.4259,0.4268,0.3959,0.3925,0.4148,0.4133,0.4297,0.4297,0.4298,0.4298,0.4299,0,0.2742,0.2758,0.2863,0.2893,0.2937,0.3032,0.3083,0.3253,0.3336,0.3587,0.3636,0.3859,0.3977,0.4185,0.4221,0.4304,0.4323,0.4059,0.3918,0.4186,0.4173,0.4157,0.4142,0.3637,0.3632,0.3627,0.3624,0,0.2683,0.2705,0.2751,0.2808,0.2857,0.2931,0.304,0.3098,0.3298,0.342,0.36,0.3733,0.397,0.3957,0.4097,0.4084,0.4024,0.3979,0.4355,0.3645,0.3577,0.356,0.3564,0.3587,0.359,0.3593,0.3595,0.3597,0.2625,0.2631,0.2675,0.2717,0.2769,0.2815,0.284,0.2968,0.3078,0.3225,0.3435,0.3538,0.3677,0.3756,0.3698,0.3666,0.3921,0.3738,0.3745,0.3758,0.3663,0.36,0.3597,0.3601,0.3604,0.3607,0.3609,0,0.2552,0.2569,0.2596,0.2634,0.2631,0.2716,0.2786,0.2784,0.2852,0.3025,0.3163,0.3037,0.3112,0.3227,0.3148,0.3203,0.31,0.3061,0.2886,0.2931,0.2969,0.2825,0.2541,0.2537,0.2533,0.2529,0,0,0.2522,0.2504,0.251,0.2474,0.2513,0.2483,0.2498,0.2506,0.2589,0.26,0.2649,0.2947,0.3149,0.2777,0.2788,0.2639,0.2734,0.2543,0.342,0.3259,0.329,0.3411,0.325,0,0,0,0,0]},{"header":{"parameterUnit":"m.s-1","parameterCategory":2,"la1":30.2991,"la2":30.254,"lo1":-89.0895,"lo2":-89.0444,"dy":0.0017,"dx":0.0017,"nx":28,"ny":28,"refTime":"2025-06-22T21:00:00:Z","depth":"2","parameterNumber":3,"parameterNumberName":"V-component_of_CURRENTS"},"data":[0,0,0,0,0,0,0,0,0,0,0,0,0,0,0,0,0,0,0,0,0,0,0,0,0,0,0,0,0,0,0,0,0,0,0,0,0,0,0,0,0,0,0,0,0,0,0,0,0,0,0,0,0,0,0,0,0,0,-0.0014,-0.0015,0,-0.0097,-0.0098,-0.0099,-0.0162,-0.0162,-0.0163,-0.0163,-0.0303,-0.0306,-0.0309,0,0,0,0,0,0,0,0,0,0,0,0,0,0.0024,0.0024,-0.0014,-0.0015,-0.0016,-0.0097,-0.0098,-0.0099,-0.0162,-0.0162,-0.0163,-0.0163,-0.0302,-0.0306,-0.031,0,0,0,0,0,0,0,0,0,0,0,0,0,-0.0021,0.0024,-0.0014,-0.0055,-0.0059,-0.0096,-0.0098,-0.01,-0.0162,-0.0162,-0.0163,-0.0163,-0.03,-0.0305,-0.031,-0.033,0,0,-0.0326,-0.0328,0,0,0,0,0,0,0,0,-0.0018,-0.0022,-0.0048,-0.0052,-0.0057,-0.0118,-0.0136,-0.0179,-0.0161,-0.0125,-0.0163,-0.0164,-0.0244,-0.0254,-0.0271,-0.0336,-0.0342,-0.0326,-0.0329,-0.0331,-0.0333,0,0,0,0,0,0,0,-0.0015,-0.002,-0.0049,-0.0049,-0.0054,-0.0092,-0.0099,-0.0145,-0.0183,-0.0128,-0.0132,-0.0138,-0.0248,-0.0265,-0.0274,-0.0345,-0.0326,-0.033,-0.0334,-0.0335,-0.0444,-0.0444,0,0,0,0,0,0,0.0004,-0.0016,-0.0046,-0.0051,-0.0036,-0.0092,-0.0099,-0.0099,-0.0182,-0.0194,-0.0138,-0.0141,-0.0257,-0.0268,-0.028,-0.0302,-0.0331,-0.0336,-0.0339,-0.0445,-0.0444,-0.0444,0,0,0,0,0,0,0.0005,0.0002,-0.0043,-0.0034,-0.0042,-0.0091,-0.0091,-0.0101,-0.0118,-0.0188,-0.0201,-0.0144,-0.0257,-0.0273,-0.0315,-0.0308,-0.0338,-0.0343,-0.0445,-0.0445,-0.0444,-0.035,0,0,0,0,0,0,0.0007,0.0003,0.0009,-0.0033,-0.0042,-0.0056,-0.0091,-0.0102,-0.012,-0.0125,-0.0198,-0.0212,-0.0259,-0.0307,-0.032,-0.0315,-0.0347,-0.0445,-0.0445,-0.0444,-0.0353,-0.0347,-0.0341,0,0,0,0,0,0.0008,0.0024,0.001,0.0006,-0.0032,-0.0055,-0.0063,-0.0102,-0.0119,-0.0121,-0.0171,-0.0209,-0.0315,-0.0311,-0.0326,-0.0323,-0.0445,-0.0445,-0.0444,-0.0356,-0.0348,-0.0341,0,0,0,0,0,0,0.0044,0.0018,0.0002,0.0008,-0.0018,-0.0065,-0.0068,-0.0095,-0.0135,-0.0139,-0.0208,-0.0225,-0.026,-0.0305,-0.0298,-0.0354,-0.0387,-0.0389,-0.0314,-0.0307,-0.0301,-0.0275,-0.0351,0,0,0,0,0,0.0056,0.006,0.0025,0.0031,0.0022,-0.0022,-0.0036,-0.006,-0.01,-0.0118,-0.0169,-0.0224,-0.0271,-0.0298,-0.0346,-0.0375,-0.0413,-0.0384,-0.0378,-0.0372,-0.0362,-0.0413,-0.041,-0.0443,-0.0443,-0.0443,0,0,0.0072,0.0058,0.006,0.0039,0.0015,0.0015,-0.0032,-0.0043,-0.0047,-0.0127,-0.0148,-0.0204,-0.0274,-0.0306,-0.0326,-0.0342,-0.0382,-0.0372,-0.0366,-0.0359,-0.0413,-0.0409,-0.0407,-0.0443,-0.0443,-0.0443,0,0,0.0111,0.0095,0.0112,0.0096,0.0072,0.0046,0.0047,0.0005,-0.0016,-0.0044,-0.0102,-0.0148,-0.022,-0.0266,-0.0299,-0.0288,-0.0347,-0.0309,-0.0257,-0.0306,-0.0304,-0.0302,-0.0336,-0.0338,-0.0305,-0.0305,-0.0305,0,0.013,0.0148,0.0113,0.0124,0.0122,0.0067,0.0086,0.0056,0.0005,-0.0008,-0.0037,-0.0138,-0.0198,-0.0238,-0.0237,-0.0273,-0.0307,-0.0276,-0.0296,-0.0295,-0.0295,-0.0331,-0.0334,-0.0301,-0.0301,-0.0302,-0.0302,0,0.018,0.0193,0.0203,0.0201,0.0193,0.02,0.0161,0.0146,0.0112,0.0077,0.0032,-0.0052,-0.0109,-0.0141,-0.0188,-0.0217,-0.0243,-0.028,-0.0309,-0.0286,-0.0325,-0.033,-0.0294,-0.0296,-0.0297,-0.0298,0,0,0.023,0.0238,0.0242,0.0261,0.0238,0.0241,0.0237,0.0218,0.0225,0.0155,0.0153,0.0057,0.0009,-0.0032,-0.0102,-0.0152,-0.0183,-0.0209,-0.0213,-0.0229,-0.0283,-0.0301,-0.0309,-0.0226,-0.0226,-0.0227,-0.0306,0,0.0281,0.033,0.0314,0.036,0.0384,0.0342,0.0348,0.0322,0.0285,0.0265,0.0171,0.0138,0.0051,0.0029,-0.0036,-0.0145,-0.0194,-0.0157,-0.0314,-0.0318,-0.0327,-0.0315,-0.0281,-0.0349,-0.0312,-0.0313,-0.0313,0,0.0336,0.0364,0.042,0.0452,0.0459,0.0472,0.048,0.0478,0.0428,0.04,0.0341,0.0269,0.0186,0.0111,-0.0057,-0.003,-0.0144,-0.0234,-0.024,-0.0293,-0.0346,-0.0371,-0.0361,-0.0323,-0.0322,-0.0321,-0.0321,0,0.0398,0.0441,0.0492,0.0501,0.052,0.0538,0.0544,0.0519,0.054,0.0487,0.0495,0.0374,0.0332,0.0169,-0.0018,-0.0038,-0.0201,-0.0254,-0.0378,-0.038,-0.0399,-0.0402,-0.037,-0.037,-0.0369,-0.0369,-0.0369,0,0.046,0.0502,0.0527,0.0556,0.0625,0.061,0.0672,0.0654,0.0656,0.0697,0.0572,0.0579,0.0344,0.0222,0.0028,-0.0179,-0.0168,-0.0361,-0.0402,-0.0365,-0.0363,-0.0384,-0.0384,-0.0372,-0.0372,-0.0371,-0.037,0,0.0516,0.0529,0.0596,0.0637,0.0657,0.0704,0.0771,0.0814,0.0798,0.0848,0.0843,0.074,0.0581,0.0341,0.0088,-0.0097,-0.0308,-0.0387,-0.0318,-0.035,-0.0466,-0.046,-0.0532,-0.0533,-0.0534,-0.0535,-0.0536,0,0.0548,0.0588,0.0662,0.0712,0.0733,0.0805,0.086,0.088,0.0943,0.0955,0.0994,0.0869,0.0801,0.0426,0.008,-0.0251,-0.03,-0.0439,-0.0481,-0.0449,-0.0483,-0.0476,-0.0469,-0.0467,-0.0467,-0.0467,-0.0467,0,0.0613,0.0634,0.0688,0.0792,0.0863,0.0958,0.1044,0.1123,0.1155,0.1199,0.1242,0.1192,0.0846,0.0523,0.0066,-0.0161,-0.0387,-0.0452,-0.044,-0.0428,-0.0394,-0.0425,-0.0419,-0.0469,-0.0468,-0.0468,-0.0468,-0.0468,0.0654,0.0705,0.0776,0.0875,0.0968,0.1095,0.1189,0.1295,0.1408,0.1486,0.1434,0.1373,0.0995,0.0429,0.0024,-0.0396,-0.0388,-0.0536,-0.0533,-0.0531,-0.0506,-0.0476,-0.056,-0.056,-0.0561,-0.0561,-0.0561,0,0.0696,0.0757,0.0856,0.0976,0.1087,0.1134,0.1302,0.1395,0.1544,0.1622,0.1652,0.1308,0.094,0.0512,-0.0113,-0.0493,-0.0522,-0.0603,-0.0557,-0.0553,-0.055,-0.0525,-0.0586,-0.0587,-0.0588,-0.0589,0,0,0.0717,0.0806,0.0859,0.1042,0.1145,0.13,0.1404,0.1546,0.165,0.1721,0.1708,0.163,0.1104,0.0654,0.0129,-0.0225,-0.0297,-0.0292,-0.0233,-0.0113,-0.0105,-0.0474,-0.0426,0,0,0,0,0]}],[{"header":{"parameterUnit":"m.s-1","parameterCategory":2,"la1":30.2991,"la2":30.254,"lo1":-89.0895,"lo2":-89.0444,"dy":0.0017,"dx":0.0017,"nx":28,"ny":28,"refTime":"2025-06-22T21:00:00:Z","depth":"4","parameterNumber":2,"parameterNumberName":"U-component_of_CURRENTS"},"data":[0,0,0,0,0,0,0,0,0,0,0,0,0,0,0,0,0,0,0,0,0,0,0,0,0,0,0,0,0,0,0,0,0,0,0,0,0,0,0,0,0,0,0,0,0,0,0,0,0,0,0,0,0,0,0,0,0,0,0.1854,0.1855,0,0.1951,0.1952,0.1953,0.2027,0.2027,0.2028,0.2029,0.2121,0.2123,0.2125,0,0,0,0,0,0,0,0,0,0,0,0,0,0.1734,0.1736,0.1854,0.1855,0.1857,0.1951,0.1952,0.1953,0.2026,0.2027,0.2028,0.2029,0.2121,0.2123,0.2125,0,0,0,0,0,0,0,0,0,0,0,0,0,0.1803,0.1737,0.1854,0.1905,0.1911,0.1951,0.1952,0.1954,0.2026,0.2027,0.2029,0.203,0.212,0.2122,0.2125,0.2118,0,0,0.2133,0.2134,0,0,0,0,0,0,0,0,0.1799,0.1808,0.1896,0.1902,0.1908,0.1979,0.1944,0.2009,0.2026,0.1981,0.2029,0.203,0.2073,0.2079,0.2094,0.2123,0.2127,0.2133,0.2135,0.2136,0.2137,0,0,0,0,0,0,0,0.1794,0.1804,0.1892,0.1898,0.1905,0.1924,0.1935,0.1957,0.2019,0.1985,0.1991,0.2003,0.2076,0.2091,0.2097,0.2128,0.2133,0.2136,0.2137,0.2138,0.2276,0.2278,0,0,0,0,0,0,0.1783,0.1799,0.1889,0.1895,0.1856,0.1925,0.1938,0.1954,0.2019,0.203,0.2002,0.2006,0.2086,0.2093,0.21,0.2209,0.2136,0.2138,0.214,0.2274,0.2276,0.2279,0,0,0,0,0,0,0.178,0.179,0.1885,0.185,0.1863,0.1926,0.1944,0.1956,0.2011,0.2032,0.2043,0.205,0.2087,0.2096,0.2161,0.2209,0.214,0.2142,0.2271,0.2275,0.2277,0.2354,0,0,0,0,0,0,0.1777,0.1789,0.1816,0.1849,0.1865,0.1934,0.1944,0.1957,0.2014,0.2022,0.2076,0.2084,0.2089,0.2157,0.2163,0.2211,0.2144,0.2269,0.2273,0.2276,0.2349,0.2359,0.2368,0,0,0,0,0,0.1772,0.1795,0.1816,0.1828,0.1893,0.1935,0.1946,0.1993,0.2016,0.2046,0.2089,0.2084,0.2186,0.2161,0.2168,0.2217,0.2267,0.2272,0.2276,0.2344,0.2357,0.2368,0,0,0,0,0,0,0.1757,0.1806,0.183,0.1868,0.1912,0.1949,0.1985,0.2014,0.2072,0.2093,0.2109,0.212,0.2194,0.2194,0.2166,0.2269,0.2226,0.2232,0.2276,0.2288,0.2297,0.2288,0.2146,0,0,0,0,0,0.1765,0.1801,0.1844,0.1881,0.1905,0.1953,0.1984,0.2018,0.2063,0.2092,0.213,0.2172,0.2211,0.2242,0.2271,0.2326,0.2336,0.2363,0.2373,0.2381,0.238,0.2439,0.2454,0.2294,0.2294,0.2294,0,0,0.1768,0.1802,0.1823,0.1881,0.1921,0.1962,0.1976,0.2036,0.2081,0.209,0.2176,0.2209,0.2233,0.23,0.2333,0.2312,0.2437,0.2387,0.2394,0.2388,0.2445,0.2461,0.2474,0.2297,0.2297,0.2296,0,0,0.1778,0.1826,0.1856,0.1897,0.1965,0.1996,0.2021,0.2084,0.213,0.2203,0.2227,0.2288,0.235,0.2379,0.2399,0.2478,0.2485,0.2498,0.2545,0.2604,0.2617,0.2629,0.2681,0.2697,0.2505,0.2505,0.2505,0,0.1783,0.1827,0.1872,0.1912,0.1953,0.2014,0.2056,0.2107,0.2187,0.223,0.2244,0.236,0.2383,0.2459,0.2493,0.25,0.2535,0.2498,0.2616,0.2628,0.2639,0.2689,0.2705,0.251,0.2509,0.2509,0.2508,0,0.1807,0.1857,0.1881,0.1952,0.2002,0.2053,0.2121,0.2189,0.2252,0.23,0.2405,0.2448,0.2516,0.2539,0.2542,0.2638,0.264,0.262,0.2584,0.2659,0.2708,0.2724,0.2516,0.2514,0.2513,0.2512,0,0,0.1772,0.1876,0.1888,0.1932,0.2033,0.2071,0.2161,0.2249,0.232,0.2404,0.2496,0.2568,0.2608,0.2631,0.2657,0.2706,0.2819,0.2706,0.2707,0.2754,0.2964,0.2794,0.2794,0.2832,0.2835,0.2837,0.2974,0,0.178,0.185,0.1909,0.1991,0.2034,0.2125,0.2202,0.2296,0.2384,0.2489,0.2557,0.2652,0.2639,0.2699,0.2747,0.2809,0.2862,0.2784,0.2886,0.2889,0.2725,0.2806,0.2846,0.2985,0.2989,0.2991,0.2993,0,0.1776,0.1829,0.1904,0.2019,0.205,0.2117,0.2258,0.2338,0.2485,0.2561,0.2663,0.2727,0.2838,0.281,0.2943,0.2904,0.294,0.297,0.2975,0.2794,0.2747,0.289,0.3021,0.3019,0.3017,0.3015,0.3013,0,0.1713,0.1824,0.1886,0.1926,0.2064,0.2133,0.2221,0.2366,0.2453,0.2624,0.2713,0.2831,0.2927,0.2989,0.3058,0.3026,0.319,0.3148,0.3025,0.3015,0.3092,0.3078,0.323,0.323,0.3229,0.3229,0.3228,0,0.1678,0.1733,0.1871,0.1904,0.1998,0.2115,0.2234,0.2341,0.2511,0.2613,0.2754,0.2846,0.2981,0.3085,0.3113,0.3122,0.324,0.3044,0.3038,0.3124,0.3111,0.3104,0.3088,0.3234,0.3233,0.3232,0.3231,0,0.1595,0.1682,0.1763,0.1916,0.1968,0.2044,0.2233,0.2316,0.2496,0.264,0.2709,0.2908,0.3035,0.3141,0.3263,0.3182,0.3212,0.3183,0.3294,0.3291,0.2986,0.2972,0.3053,0.3048,0.3044,0.3041,0.3038,0,0.1552,0.1587,0.1749,0.1801,0.1878,0.2006,0.2089,0.2284,0.2375,0.2643,0.2698,0.2904,0.3007,0.3051,0.3164,0.3219,0.3175,0.317,0.3037,0.2981,0.2969,0.2962,0.2954,0.3031,0.303,0.3029,0.3028,0,0.1473,0.1551,0.1619,0.1722,0.1817,0.1911,0.205,0.2102,0.2325,0.2507,0.2627,0.2715,0.2857,0.2942,0.3018,0.3039,0.3158,0.3126,0.3133,0.3008,0.2955,0.2946,0.2943,0.3014,0.3016,0.3017,0.3018,0,0.142,0.1447,0.1545,0.1626,0.1733,0.179,0.1877,0.1991,0.2105,0.2391,0.2421,0.2639,0.2819,0.2853,0.2919,0.2937,0.2881,0.2772,0.2796,0.2813,0.267,0.2563,0.2507,0,0,0,0,0,0.1358,0.1373,0.1438,0.1511,0.1613,0.168,0.1839,0.1935,0.2138,0.2161,0.2288,0.2405,0.252,0.2637,0.2609,0.2818,0.2893,0.2773,0.2777,0.2935,0.2951,0.2803,0,0,0,0,0,0,0.1312,0.1367,0.1392,0.1402,0.1432,0.1528,0.1626,0.1767,0.1794,0.201,0.2087,0.2254,0.2403,0.2506,0.2557,0.2593,0.2547,0.291,0.2904,0.2925,0.294,0.2953,0.2808,0,0,0,0,0]},{"header":{"parameterUnit":"m.s-1","parameterCategory":2,"la1":30.2991,"la2":30.254,"lo1":-89.0895,"lo2":-89.0444,"dy":0.0017,"dx":0.0017,"nx":28,"ny":28,"refTime":"2025-06-22T21:00:00:Z","depth":"4","parameterNumber":3,"parameterNumberName":"V-component_of_CURRENTS"},"data":[0,0,0,0,0,0,0,0,0,0,0,0,0,0,0,0,0,0,0,0,0,0,0,0,0,0,0,0,0,0,0,0,0,0,0,0,0,0,0,0,0,0,0,0,0,0,0,0,0,0,0,0,0,0,0,0,0,0,0.0015,0.0015,0,-0.0043,-0.0044,-0.0044,-0.0089,-0.009,-0.009,-0.009,-0.0196,-0.0199,-0.0201,0,0,0,0,0,0,0,0,0,0,0,0,0,0.0036,0.0036,0.0015,0.0015,0.0014,-0.0043,-0.0044,-0.0045,-0.0089,-0.009,-0.009,-0.009,-0.0196,-0.0199,-0.0202,0,0,0,0,0,0,0,0,0,0,0,0,0,0.0006,0.0036,0.0016,-0.0014,-0.0017,-0.0043,-0.0044,-0.0045,-0.0089,-0.009,-0.009,-0.009,-0.0195,-0.0198,-0.0202,-0.0217,0,0,-0.0214,-0.0216,0,0,0,0,0,0,0,0,0.0008,0.0005,-0.0009,-0.0012,-0.0015,-0.0058,-0.0076,-0.0104,-0.0089,-0.0063,-0.009,-0.0091,-0.0153,-0.0161,-0.0172,-0.0222,-0.0227,-0.0214,-0.0217,-0.0218,-0.0219,0,0,0,0,0,0,0,0.001,0.0007,-0.0009,-0.0009,-0.0013,-0.0042,-0.0046,-0.0081,-0.0107,-0.0065,-0.0069,-0.0073,-0.0156,-0.0168,-0.0175,-0.0228,-0.0214,-0.0218,-0.022,-0.0221,-0.0307,-0.0307,0,0,0,0,0,0,0.0023,0.0009,-0.0007,-0.0011,-0.0003,-0.0042,-0.0047,-0.0045,-0.0106,-0.0115,-0.0072,-0.0074,-0.0161,-0.017,-0.0179,-0.0196,-0.0218,-0.0222,-0.0224,-0.0307,-0.0307,-0.0307,0,0,0,0,0,0,0.0024,0.0023,-0.0005,-0.0001,-0.0007,-0.0041,-0.0039,-0.0046,-0.0059,-0.011,-0.012,-0.0078,-0.0162,-0.0173,-0.0207,-0.0201,-0.0224,-0.0227,-0.0307,-0.0307,-0.0307,-0.0233,0,0,0,0,0,0,0.0025,0.0023,0.0028,-0.0,-0.0006,-0.0014,-0.0039,-0.0047,-0.006,-0.0064,-0.0119,-0.0129,-0.0163,-0.0201,-0.0211,-0.0206,-0.023,-0.0307,-0.0307,-0.0307,-0.0236,-0.0231,-0.0227,0,0,0,0,0,0.0026,0.0038,0.0029,0.0027,0.0002,-0.0014,-0.0019,-0.0047,-0.006,-0.0062,-0.0099,-0.0127,-0.0208,-0.0204,-0.0215,-0.0212,-0.0307,-0.0307,-0.0307,-0.0238,-0.0232,-0.0227,0,0,0,0,0,0,0.0049,0.0034,0.0023,0.003,0.0012,-0.002,-0.0023,-0.0043,-0.0073,-0.0076,-0.0127,-0.014,-0.0167,-0.0201,-0.0195,-0.0238,-0.0263,-0.0265,-0.0206,-0.0201,-0.0196,-0.0174,-0.0233,0,0,0,0,0,0.0058,0.0064,0.004,0.0046,0.004,0.0009,-0.0001,-0.0018,-0.0047,-0.0061,-0.0099,-0.0141,-0.0176,-0.0196,-0.0233,-0.0255,-0.0291,-0.0262,-0.0257,-0.0253,-0.0244,-0.0294,-0.0293,-0.0307,-0.0307,-0.0307,0,0,0.0069,0.0061,0.0065,0.0051,0.0035,0.0037,0.0001,-0.0006,-0.0006,-0.0068,-0.0083,-0.0126,-0.0179,-0.0203,-0.0218,-0.023,-0.0268,-0.0253,-0.0248,-0.0242,-0.0294,-0.0292,-0.0291,-0.0307,-0.0307,-0.0307,0,0,0.0099,0.0088,0.0103,0.0093,0.0077,0.006,0.006,0.0031,0.0015,-0.0005,-0.0049,-0.0085,-0.0139,-0.0173,-0.0198,-0.0191,-0.0242,-0.0206,-0.0165,-0.0213,-0.0212,-0.0212,-0.0253,-0.0257,-0.0203,-0.0203,-0.0203,0,0.0112,0.0129,0.0104,0.0115,0.0116,0.0075,0.0092,0.007,0.0033,0.0023,0.0001,-0.0077,-0.0122,-0.0153,-0.0151,-0.0179,-0.0214,-0.0178,-0.0206,-0.0206,-0.0207,-0.0249,-0.0254,-0.02,-0.02,-0.02,-0.0201,0,0.0151,0.0164,0.0172,0.0176,0.0172,0.0179,0.0152,0.0141,0.0116,0.0089,0.0053,-0.0011,-0.0056,-0.0079,-0.0113,-0.014,-0.0166,-0.0193,-0.0215,-0.0201,-0.0247,-0.0253,-0.0195,-0.0196,-0.0197,-0.0198,0,0,0.0185,0.0199,0.0203,0.022,0.0207,0.0211,0.0211,0.0199,0.0202,0.015,0.0144,0.0075,0.0035,0.0004,-0.005,-0.0093,-0.0131,-0.0138,-0.0143,-0.0169,-0.0235,-0.0235,-0.0243,-0.0165,-0.0166,-0.0166,-0.0264,0,0.0223,0.0265,0.0259,0.0299,0.0319,0.0291,0.0299,0.028,0.025,0.0231,0.0158,0.013,0.0067,0.0049,-0.0006,-0.0099,-0.0145,-0.0101,-0.0254,-0.0258,-0.0251,-0.0249,-0.0169,-0.0269,-0.0271,-0.0272,-0.0273,0,0.0264,0.0289,0.0337,0.0369,0.0376,0.0391,0.0398,0.0398,0.0357,0.0333,0.0283,0.0224,0.0155,0.0101,-0.0049,-0.002,-0.0117,-0.0193,-0.0199,-0.0227,-0.0269,-0.029,-0.0285,-0.0284,-0.0283,-0.0283,-0.0282,0,0.0303,0.0345,0.0389,0.0398,0.0422,0.044,0.0448,0.0428,0.0442,0.0395,0.0397,0.0294,0.0252,0.0117,-0.004,-0.0047,-0.0207,-0.0241,-0.0333,-0.0334,-0.0338,-0.0338,-0.0345,-0.0344,-0.0344,-0.0344,-0.0344,0,0.0344,0.038,0.0413,0.0437,0.0495,0.0491,0.0538,0.0526,0.0524,0.0546,0.0453,0.0441,0.0253,0.014,-0.0014,-0.0188,-0.0193,-0.0321,-0.0358,-0.0305,-0.03,-0.0343,-0.0341,-0.0348,-0.0347,-0.0346,-0.0345,0,0.0372,0.0393,0.045,0.0494,0.0515,0.0552,0.061,0.0639,0.0628,0.0652,0.0647,0.0547,0.0396,0.0206,-0.0014,-0.0142,-0.0315,-0.0377,-0.0294,-0.0326,-0.0417,-0.0411,-0.0488,-0.0489,-0.049,-0.049,-0.0491,0,0.0388,0.0421,0.0494,0.0534,0.0557,0.0617,0.0661,0.0684,0.072,0.0716,0.0731,0.0612,0.0517,0.0222,0.0003,-0.0285,-0.0331,-0.0421,-0.0431,-0.0403,-0.0432,-0.0425,-0.0418,-0.0492,-0.0492,-0.0492,-0.0492,0,0.0415,0.0441,0.0486,0.0572,0.0633,0.0709,0.0772,0.0815,0.0839,0.0841,0.0809,0.0657,0.0486,0.0238,0.0016,-0.0196,-0.0363,-0.0429,-0.0429,-0.044,-0.0409,-0.0435,-0.0427,-0.0494,-0.0494,-0.0494,-0.0494,0,0.0426,0.046,0.052,0.0596,0.0683,0.0765,0.0805,0.0851,0.0891,0.0893,0.0878,0.0695,0.0588,0.0283,0.0077,-0.0127,-0.0191,-0.0263,-0.0274,-0.0274,-0.019,-0.0117,-0.0139,0,0,0,0,0,0.0425,0.0461,0.0537,0.062,0.0714,0.0765,0.0862,0.0895,0.0934,0.0928,0.091,0.0754,0.0456,0.0326,0.0122,0.0034,-0.0247,-0.0215,-0.034,-0.0507,-0.0504,-0.0442,0,0,0,0,0,0,0.0416,0.048,0.0526,0.063,0.0691,0.0793,0.0859,0.0891,0.0892,0.0903,0.0755,0.069,0.0401,0.057,0.0112,0.0049,-0.0061,-0.0351,-0.0355,-0.0508,-0.0506,-0.0504,-0.0439,0,0,0,0,0]}]]